Flag for Germany Weather past 2 weeks in Schwabach, Bavaria, Germany

48 °F

Passing clouds.

Feels Like: 41 °F
Forecast: 40 / 49 °F
Wind: 22 mph from West

Location: Nuernberg

Current Time: Dec 1, 2015 at 7:12:50 AM

Latest Report: Dec 1, 2015 at 6:20 AM

Visibility: N/A

Pressure: 30.12 "Hg

Humidity: 87%

Dew point: 45 °F

Location of SchwabachLocation

Historic Weather in Schwabach — Graph


Schwabach temperature yesterday

Maximum temperature yesterday: 50 °F (at 12:50 AM)
Minimum temperature yesterday: 45 °F (at 8:20 AM)
Average temperature yesterday: 48 °F

Past Weeks' High & Low Weather Summary

High61 °F (Nov 16, 12:50 PM)100% (Nov 20, 9:50 PM)30.27 "Hg (Nov 20, 9:50 PM)
Low27 °F (Nov 28, 3:20 AM)31% (Nov 16, 1:20 PM)29.42 "Hg (Nov 21, 12:20 PM)
Average41 °F86%29.93 "Hg
* Reported Nov 16 5:20 AM — Dec 1 5:20 AM, Schwabach, Weather by CustomWeather, © 2015

Note: Actual official high and low records may vary slightly from our data, if they occured in-between our weather recording intervals... More about our weather records


Schwabach weather history for previous 24 hours

Time TempWeatherWind HumidityBarometerVisibility
5:20 AM
Tue, Dec 1
48 °FPassing clouds.23 mph87%30.09 "HgN/A
4:50 AM48 °FPassing clouds.24 mph87%30.09 "HgN/A
4:20 AM48 °FPassing clouds.25 mph87%30.09 "HgN/A
3:50 AM48 °FPassing clouds.25 mph87%30.07 "HgN/A
3:20 AM48 °FPassing clouds.29 mph87%30.07 "HgN/A
2:50 AM48 °FLight rain. Passing clouds.31 mph87%30.07 "HgN/A
2:20 AM48 °FLight rain. Passing clouds.29 mph87%30.07 "HgN/A
1:50 AM48 °FLight rain. Passing clouds.28 mph87%30.04 "HgN/A
12:50 AM48 °FLight rain. Passing clouds.25 mph82%30.04 "HgN/A
11:50 PM
Mon, Nov 30
48 °FLight rain. Passing clouds.30 mph82%30.04 "HgN/A
11:20 PM48 °FLight rain. Passing clouds.25 mph87%30.04 "HgN/A
10:50 PM48 °FLight rain. Passing clouds.23 mph87%30.04 "HgN/A
10:20 PM48 °FLight rain. Partly cloudy.23 mph82%30.01 "HgN/A
9:50 PM48 °FLight rain. Passing clouds.24 mph82%30.04 "HgN/A
9:20 PM50 °FLight rain. Passing clouds.22 mph76%30.04 "HgN/A
8:50 PM50 °FPartly cloudy.21 mph76%30.04 "HgN/A
8:20 PM48 °FPartly cloudy.21 mph82%30.04 "HgN/A
7:50 PM48 °FLight rain. Passing clouds.23 mph82%30.07 "HgN/A
7:20 PM48 °FLight rain. Passing clouds.20 mph82%30.07 "HgN/A
6:50 PM48 °FPassing clouds.24 mph82%30.07 "HgN/A
6:20 PM50 °FPartly cloudy.22 mph71%30.07 "HgN/A
5:50 PM50 °FPassing clouds.22 mph71%30.07 "HgN/A
5:20 PM48 °FPassing clouds.22 mph82%30.07 "HgN/A
4:50 PM48 °FPassing clouds.21 mph82%30.07 "HgN/A
4:20 PM48 °FLight rain. Mostly cloudy.22 mph82%30.07 "HgN/A
3:50 PM48 °FLight rain. Mostly cloudy.24 mph87%30.09 "HgN/A
3:20 PM48 °FLight rain. Partly sunny.22 mph87%30.09 "HgN/A
2:50 PM48 °FLight rain. Partly sunny.17 mph87%30.09 "HgN/A
2:20 PM48 °FLight rain. Partly sunny.18 mph87%30.09 "HgN/A
1:50 PM48 °FLight rain. Partly sunny.17 mph87%30.12 "HgN/A
1:20 PM48 °FLight rain. Broken clouds.15 mph87%30.12 "HgN/A
12:50 PM45 °FLight rain. Broken clouds.7 mph100%30.12 "Hg4 mi
12:20 PM45 °FLight rain. Broken clouds.8 mph93%30.12 "Hg4 mi
11:50 AM45 °FLight rain. Partly sunny.10 mph93%30.15 "Hg5 mi
11:20 AM45 °FLight rain. Broken clouds.10 mph93%30.15 "Hg5 mi
10:50 AM45 °FLight rain. Partly sunny.12 mph87%30.15 "HgN/A
10:20 AM45 °FLight rain. Broken clouds.14 mph87%30.15 "HgN/A
9:50 AM45 °FLight rain. Partly sunny.9 mph93%30.15 "HgN/A
9:20 AM45 °FLight rain. Partly sunny.10 mph93%30.15 "HgN/A
8:20 AM45 °FLight rain. Partly sunny.18 mph93%30.09 "HgN/A
7:50 AM48 °FLight rain. Partly sunny.28 mph82%30.07 "HgN/A
7:20 AM48 °FLight rain. Passing clouds.22 mph82%30.07 "HgN/A
Weather by CustomWeather, © 2015

See weather overviewHow to use our weather pages